| time (UTC) | temp F | wind direction | speed MPH | gust MPH | rain 1hr in | rain 24hr in | rain mn in | humidity % | barometer mb |
| 20260906170502 | 80 | 62 | 4.0 | 6.0 | 0.00 | 0.00 | 0.00 | 62 | 1021.0 |
| 20260906165501 | 80 | 13 | 1.0 | 4.0 | 0.00 | 0.00 | 0.00 | 63 | 1021.3 |
| 20260906165002 | 79 | 58 | 1.0 | 5.0 | 0.00 | 0.00 | 0.00 | 65 | 1021.2 |
| 20260906163502 | 79 | 293 | 0.0 | 3.0 | 0.00 | 0.00 | 0.00 | 68 | 1021.0 |
| 20260906162502 | 80 | 15 | 3.0 | 4.0 | 0.00 | 0.00 | 0.00 | 66 | 1021.0 |
| 20260906162002 | 80 | 53 | 3.0 | 4.0 | 0.00 | 0.00 | 0.00 | 66 | 1020.9 |
| 20260906161502 | 79 | 55 | 5.0 | 6.0 | 0.00 | 0.00 | 0.00 | 68 | 1021.3 |
| 20260906161002 | 79 | 45 | 3.0 | 7.0 | 0.00 | 0.00 | 0.00 | 69 | 1021.1 |
| 20260906160502 | 78 | 29 | 1.0 | 5.0 | 0.00 | 0.00 | 0.00 | 71 | 1021.0 |
| 20260906155502 | 78 | 24 | 0.0 | 0.0 | 0.00 | 0.00 | 0.00 | 71 | 1021.2 |
| 20260906153002 | 76 | 337 | 1.0 | 2.0 | 0.00 | 0.00 | 0.00 | 79 | 1021.2 |
| 20260906152502 | 75 | 314 | 1.0 | 2.0 | 0.00 | 0.00 | 0.00 | 80 | 1021.1 |
| 20260906152002 | 77 | 178 | 2.0 | 4.0 | 0.00 | 0.00 | 0.00 | 77 | 1021.2 |
| 20260906150002 | 77 | 282 | 1.0 | 5.0 | 0.00 | 0.00 | 0.00 | 79 | 1021.1 |
| 20260906145504 | 76 | 29 | 2.0 | 5.0 | 0.00 | 0.00 | 0.00 | 79 | 1020.9 |
| 20260906145001 | 75 | 285 | 1.0 | 4.0 | 0.00 | 0.00 | 0.00 | 84 | 1021.0 |
| 20260906144502 | 76 | 339 | 1.0 | 2.0 | 0.00 | 0.00 | 0.00 | 82 | 1020.9 |
| 20260906143002 | 76 | 281 | 1.0 | 4.0 | 0.00 | 0.00 | 0.00 | 82 | 1020.6 |
| 20260906142502 | 75 | 300 | 0.0 | 2.0 | 0.00 | 0.00 | 0.00 | 85 | 1020.6 |
| 20260906141502 | 74 | 358 | 2.0 | 3.0 | 0.00 | 0.00 | 0.00 | 85 | 1020.8 |
| 20260906141002 | 74 | 336 | 0.0 | 4.0 | 0.00 | 0.00 | 0.00 | 86 | 1020.9 |
| 20260906140003 | 76 | 204 | 2.0 | 4.0 | 0.00 | 0.00 | 0.00 | 81 | 1021.0 |
| 20260906135002 | 75 | 29 | 3.0 | 5.0 | 0.00 | 0.00 | 0.00 | 83 | 1020.8 |
| 20260906134502 | 76 | 262 | 1.0 | 4.0 | 0.00 | 0.00 | 0.00 | 83 | 1020.8 |
| 20260906133002 | 75 | 240 | 1.0 | 3.0 | 0.00 | 0.00 | 0.00 | 84 | 1020.6 |
| 20260906132002 | 74 | 7 | 2.0 | 4.0 | 0.00 | 0.00 | 0.00 | 86 | 1020.7 |
| 20260906131501 | 74 | 311 | 1.0 | 3.0 | 0.00 | 0.00 | 0.00 | 87 | 1020.7 |
| 20260906130502 | 74 | 255 | 0.0 | 0.0 | 0.00 | 0.00 | 0.00 | 88 | 1020.5 |
| 20260906125002 | 72 | 288 | 0.0 | 0.0 | 0.00 | 0.00 | 0.00 | 93 | 1020.7 |
| 20260906124002 | 71 | 340 | 0.0 | 0.0 | 0.00 | 0.00 | 0.00 | 96 | 1020.3 |
| 20260906122502 | 70 | 291 | 0.0 | 0.0 | 0.00 | 0.00 | 0.00 | 99 | 1020.5 |
| 20260906121502 | 70 | 288 | 0.0 | 0.0 | 0.00 | 0.00 | 0.00 | 99 | 1020.2 |
| 20260906120501 | 69 | 299 | 0.0 | 0.0 | 0.00 | 0.00 | 0.00 | 99 | 1019.9 |
| 20260906115502 | 69 | 332 | 0.0 | 0.0 | 0.00 | 0.00 | 0.00 | 99 | 1019.9 |
| 20260906114002 | 68 | 289 | 0.0 | 0.0 | 0.00 | 0.00 | 0.00 | 99 | 1019.5 |
| 20260906112502 | 68 | 291 | 0.0 | 0.0 | 0.00 | 0.00 | 0.00 | 99 | 1019.4 |
| 20260906111502 | 68 | 292 | 0.0 | 0.0 | 0.00 | 0.00 | 0.00 | 99 | 1019.4 |
| 20260906111002 | 68 | 292 | 0.0 | 0.0 | 0.00 | 0.00 | 0.00 | 99 | 1019.4 |
| 20260906110502 | 68 | 290 | 0.0 | 0.0 | 0.00 | 0.00 | 0.00 | 99 | 1019.1 |
| 20260906110002 | 68 | 290 | 0.0 | 0.0 | 0.00 | 0.00 | 0.00 | 99 | 1018.8 |
| 20260906104502 | 68 | 295 | 0.0 | 0.0 | 0.00 | 0.00 | 0.00 | 99 | 1018.9 |
| 20260906102501 | 68 | 291 | 0.0 | 0.0 | 0.00 | 0.00 | 0.00 | 99 | 1018.8 |
| 20260906100002 | 68 | 291 | 0.0 | 0.0 | 0.00 | 0.00 | 0.00 | 99 | 1018.4 |
| 20260906095002 | 68 | 291 | 0.0 | 0.0 | 0.00 | 0.00 | 0.00 | 99 | 1018.6 |
| 20260906094002 | 69 | 285 | 0.0 | 0.0 | 0.00 | 0.00 | 0.00 | 99 | 1018.7 |
| 20260906093501 | 69 | 285 | 0.0 | 0.0 | 0.00 | 0.00 | 0.00 | 99 | 1018.6 |
| 20260906092501 | 69 | 292 | 0.0 | 0.0 | 0.00 | 0.00 | 0.00 | 99 | 1018.4 |
| 20260906090002 | 70 | 305 | 0.0 | 0.0 | 0.00 | 0.00 | 0.00 | 99 | 1018.4 |
| 20260906085502 | 70 | 293 | 0.0 | 0.0 | 0.00 | 0.00 | 0.00 | 99 | 1018.4 |
| 20260906084501 | 70 | 317 | 0.0 | 0.0 | 0.00 | 0.00 | 0.00 | 98 | 1018.1 |
| 20260906083502 | 71 | 304 | 0.0 | 0.0 | 0.00 | 0.00 | 0.00 | 98 | 1018.6 |
| 20260906083002 | 71 | 331 | 0.0 | 0.0 | 0.00 | 0.00 | 0.00 | 98 | 1018.3 |
| 20260906082502 | 71 | 301 | 0.0 | 0.0 | 0.00 | 0.00 | 0.00 | 97 | 1018.4 |
| 20260906082001 | 71 | 295 | 0.0 | 0.0 | 0.00 | 0.00 | 0.00 | 97 | 1018.5 |
| 20260906081502 | 72 | 295 | 0.0 | 0.0 | 0.00 | 0.00 | 0.00 | 96 | 1018.6 |
| 20260906075502 | 72 | 288 | 0.0 | 0.0 | 0.00 | 0.00 | 0.00 | 95 | 1018.9 |
| 20260906075002 | 72 | 298 | 0.0 | 0.0 | 0.00 | 0.00 | 0.00 | 95 | 1018.5 |
| 20260906074002 | 72 | 290 | 0.0 | 0.0 | 0.00 | 0.00 | 0.00 | 94 | 1018.6 |
| 20260906071501 | 72 | 307 | 0.0 | 0.0 | 0.00 | 0.00 | 0.00 | 95 | 1018.6 |
| 20260906070002 | 72 | 298 | 0.0 | 0.0 | 0.00 | 0.00 | 0.00 | 95 | 1018.5 |
| 20260906065502 | 72 | 7 | 0.0 | 0.0 | 0.00 | 0.00 | 0.00 | 95 | 1018.8 |
| 20260906064502 | 72 | 292 | 0.0 | 0.0 | 0.00 | 0.00 | 0.00 | 96 | 1018.6 |
| 20260906064003 | 72 | 305 | 0.0 | 3.0 | 0.00 | 0.00 | 0.00 | 95 | 1018.6 |
| 20260906062502 | 73 | 295 | 0.0 | 0.0 | 0.00 | 0.00 | 0.00 | 95 | 1018.8 |
| 20260906061502 | 73 | 346 | 1.0 | 3.0 | 0.00 | 0.00 | 0.00 | 94 | 1018.6 |
| 20260906055002 | 73 | 355 | 0.0 | 0.0 | 0.00 | 0.00 | 0.00 | 94 | 1018.4 |
| 20260906053502 | 73 | 320 | 1.0 | 3.0 | 0.00 | 0.00 | 0.00 | 94 | 1018.4 |
| 20260906051001 | 73 | 311 | 0.0 | 2.0 | 0.00 | 0.00 | 0.00 | 94 | 1018.4 |
| 20260906050003 | 73 | 305 | 0.0 | 0.0 | 0.00 | 0.00 | 0.00 | 94 | 1018.1 |
| 20260906045002 | 73 | 61 | 4.0 | 6.0 | 0.00 | 0.00 | 0.00 | 93 | 1017.7 |
| 20260906044002 | 73 | 316 | 1.0 | 3.0 | 0.00 | 0.00 | 0.00 | 93 | 1017.6 |
| 20260906042502 | 73 | 329 | 0.0 | 4.0 | 0.00 | 0.00 | 0.00 | 93 | 1017.9 |
| 20260906042002 | 73 | 348 | 1.0 | 6.0 | 0.00 | 0.00 | 0.00 | 93 | 1017.7 |
| 20260906041502 | 73 | 354 | 0.0 | 0.0 | 0.00 | 0.00 | 0.00 | 93 | 1017.5 |
| 20260906035502 | 73 | 4 | 0.0 | 4.0 | 0.00 | 0.00 | 0.00 | 93 | 1017.6 |
| 20260906034001 | 73 | 291 | 0.0 | 4.0 | 0.00 | 0.00 | 0.00 | 93 | 1017.5 |
| 20260906033002 | 73 | 321 | 1.0 | 4.0 | 0.00 | 0.00 | 0.00 | 93 | 1017.4 |
| 20260906032502 | 73 | 324 | 0.0 | 3.0 | 0.00 | 0.00 | 0.00 | 93 | 1017.7 |
| 20260906032002 | 73 | 321 | 0.0 | 3.0 | 0.00 | 0.00 | 0.00 | 93 | 1017.6 |
| 20260906031002 | 73 | 31 | 2.0 | 7.0 | 0.00 | 0.00 | 0.00 | 93 | 1017.6 |
| 20260906030002 | 73 | 347 | 0.0 | 2.0 | 0.00 | 0.00 | 0.00 | 93 | 1017.3 |
| 20260906025002 | 73 | 0 | 0.0 | 2.0 | 0.00 | 0.00 | 0.00 | 93 | 1017.2 |
| 20260906022502 | 73 | 133 | 2.0 | 5.0 | 0.00 | 0.00 | 0.00 | 92 | 1017.3 |
| 20260906022002 | 73 | 48 | 1.0 | 2.0 | 0.00 | 0.00 | 0.00 | 92 | 1017.5 |
| 20260906021002 | 73 | 326 | 2.0 | 4.0 | 0.00 | 0.00 | 0.00 | 92 | 1017.5 |
| 20260906015502 | 73 | 278 | 0.0 | 2.0 | 0.00 | 0.00 | 0.00 | 92 | 1017.7 |
| 20260906013002 | 73 | 56 | 1.0 | 3.0 | 0.00 | 0.00 | 0.00 | 91 | 1017.5 |
| 20260906004502 | 73 | 294 | 0.0 | 0.0 | 0.00 | 0.00 | 0.00 | 89 | 1016.9 |
| 20260906004002 | 74 | 286 | 1.0 | 3.0 | 0.00 | 0.00 | 0.00 | 89 | 1016.8 |
| 20260906002002 | 75 | 284 | 0.0 | 5.0 | 0.00 | 0.00 | 0.00 | 88 | 1016.6 |
| 20260906001002 | 75 | 336 | 2.0 | 6.0 | 0.00 | 0.00 | 0.00 | 88 | 1016.8 |
| 20260906000502 | 75 | 358 | 1.0 | 4.0 | 0.00 | 0.00 | 0.00 | 87 | 1016.8 |
| 20260906000005 | 76 | 359 | 1.0 | 9.0 | 0.00 | 0.00 | 0.00 | 87 | 1016.8 |
| 20260905235002 | 77 | 0 | 0.0 | 3.0 | 0.00 | 0.00 | 0.00 | 85 | 1016.8 |
| 20260905234501 | 77 | 272 | 0.0 | 0.0 | 0.00 | 0.00 | 0.00 | 85 | 1016.8 |
| 20260905232501 | 78 | 64 | 3.0 | 5.0 | 0.00 | 0.00 | 0.00 | 83 | 1016.6 |
| 20260905231502 | 79 | 214 | 3.0 | 7.0 | 0.00 | 0.00 | 0.00 | 82 | 1016.2 |
| 20260905225502 | 79 | 283 | 1.0 | 4.0 | 0.00 | 0.00 | 0.00 | 81 | 1016.2 |
| 20260905224502 | 80 | 309 | 3.0 | 9.0 | 0.00 | 0.00 | 0.00 | 80 | 1015.9 |
| 20260905224002 | 80 | 288 | 2.0 | 6.0 | 0.00 | 0.00 | 0.00 | 80 | 1016.0 |
| 20260905223001 | 79 | 45 | 2.0 | 6.0 | 0.00 | 0.00 | 0.00 | 82 | 1016.1 |
| 20260905221502 | 82 | 286 | 2.0 | 5.0 | 0.00 | 0.00 | 0.00 | 77 | 1016.1 |
| 20260905220502 | 80 | 305 | 3.0 | 5.0 | 0.00 | 0.00 | 0.00 | 79 | 1016.1 |
| 20260905215502 | 79 | 311 | 0.0 | 2.0 | 0.00 | 0.00 | 0.00 | 82 | 1016.0 |
| 20260905214502 | 79 | 279 | 1.0 | 3.0 | 0.00 | 0.00 | 0.00 | 82 | 1016.1 |
| 20260905212502 | 80 | 54 | 1.0 | 4.0 | 0.00 | 0.00 | 0.00 | 80 | 1016.0 |
| 20260905210001 | 82 | 71 | 3.0 | 6.0 | 0.00 | 0.00 | 0.00 | 78 | 1015.8 |
| 20260905205502 | 82 | 295 | 2.0 | 5.0 | 0.00 | 0.00 | 0.00 | 78 | 1016.0 |
| 20260905205002 | 84 | 292 | 2.0 | 4.0 | 0.00 | 0.00 | 0.00 | 77 | 1016.0 |
| 20260905204502 | 83 | 308 | 3.0 | 5.0 | 0.00 | 0.00 | 0.00 | 78 | 1016.0 |
| 20260905203001 | 84 | 59 | 2.0 | 6.0 | 0.00 | 0.00 | 0.00 | 76 | 1016.1 |
| 20260905202502 | 83 | 316 | 2.0 | 4.0 | 0.00 | 0.00 | 0.00 | 78 | 1016.1 |
| 20260905202002 | 83 | 288 | 2.0 | 5.0 | 0.00 | 0.00 | 0.00 | 77 | 1016.0 |
| 20260905201501 | 83 | 306 | 2.0 | 7.0 | 0.00 | 0.00 | 0.00 | 77 | 1016.0 |
| 20260905200003 | 84 | 19 | 2.0 | 4.0 | 0.00 | 0.00 | 0.00 | 75 | 1015.8 |
| 20260905194502 | 85 | 303 | 1.0 | 6.0 | 0.00 | 0.00 | 0.00 | 76 | 1015.8 |
| 20260905193001 | 85 | 19 | 2.0 | 6.0 | 0.00 | 0.00 | 0.00 | 75 | 1015.9 |
| 20260905192502 | 83 | 42 | 3.0 | 4.0 | 0.00 | 0.00 | 0.00 | 77 | 1016.3 |
| 20260905191002 | 86 | 324 | 3.0 | 7.0 | 0.00 | 0.00 | 0.00 | 75 | 1016.0 |
| 20260905190502 | 86 | 333 | 3.0 | 4.0 | 0.00 | 0.00 | 0.00 | 73 | 1016.3 |
| 20260905190001 | 85 | 22 | 1.0 | 7.0 | 0.00 | 0.00 | 0.00 | 75 | 1016.0 |
| 20260905184001 | 86 | 83 | 1.0 | 4.0 | 0.00 | 0.00 | 0.00 | 75 | 1016.5 |
| 20260905183502 | 84 | 50 | 2.0 | 5.0 | 0.00 | 0.00 | 0.00 | 76 | 1016.2 |
| 20260905182501 | 86 | 309 | 2.0 | 5.0 | 0.00 | 0.00 | 0.00 | 75 | 1016.2 |
| 20260905181502 | 85 | 13 | 2.0 | 9.0 | 0.00 | 0.00 | 0.00 | 76 | 1016.1 |
| 20260905181002 | 85 | 52 | 5.0 | 7.0 | 0.00 | 0.00 | 0.00 | 75 | 1016.1 |
| 20260905175002 | 86 | 350 | 2.0 | 4.0 | 0.00 | 0.00 | 0.00 | 75 | 1015.9 |
| 20260905174502 | 86 | 21 | 2.0 | 6.0 | 0.00 | 0.00 | 0.00 | 74 | 1016.1 |
| 20260905174002 | 87 | 292 | 2.0 | 5.0 | 0.00 | 0.00 | 0.00 | 73 | 1015.7 |
| 20260905172501 | 87 | 74 | 4.0 | 6.0 | 0.00 | 0.00 | 0.00 | 73 | 1016.1 |